Wind_Speed
19 21 20 20 20 20 19 17 17 18 19 19 17 15 13 10 9 8 8 9 9 9 9 9 10 10 11 13 15 16 16 16 16 18 19 19 20 19 17 16 17 19 21 22 23 23 24 27 28 28 27 26 26 27 27 27 26 26 27 28 27 26 26 25 26 26 25 26 28 27 26 26 25 24 23 22 20 18 18 20 22 23 23 22 21
17 18 19 20 22 21 19 17 17 19 20 20 20 19 17 15 12 10 9 8 8 9 10 10 9 10 10 11 13 15 16 16 17 17 17 17 18 17 16 16 17 19 21 22 23 23 24 25 27 27 26 26 26 27 28 28 26 26 27 28 27 26 26 26 27 28 28 29 29 28 28 27 26 25 24 23 22 21 20 22 24 24 24 23 22
13 13 15 18 20 20 20 19 20 21 22 22 22 21 20 19 17 16 14 11 7 6 7 9 10 11 11 11 12 13 15 16 17 16 15 15 15 14 14 17 19 20 21 22 23 24 24 25 26 26 26 26 26 27 27 28 27 27 28 29 26 24 25 25 26 27 29 29 29 30 30 29 28 26 24 24 24 22 21 23 25 25 24 24 22
14 13 14 16 19 20 21 22 22 23 24 24 23 22 21 20 18 18 18 16 12 8 5 7 9 11 12 12 13 14 15 15 15 15 14 14 16 15 15 17 20 22 22 22 22 23 23 24 25 25 25 26 26 25 26 27 28 28 28 28 26 25 25 24 23 24 26 27 28 29 30 30 29 28 25 25 25 24 21 22 26 26 23 23 23
16 16 16 18 21 22 22 23 24 24 25 25 25 24 23 21 20 19 18 18 17 13 8 6 7 10 11 13 14 14 16 16 15 14 13 13 15 17 18 18 19 21 22 22 22 23 23 22 23 24 24 25 25 25 26 27 27 26 26 27 27 27 28 26 24 24 25 25 26 29 30 31 31 30 28 27 28 26 22 22 26 26 22 21 22
15 17 17 19 21 23 24 25 25 25 26 26 25 25 24 23 22 21 20 18 18 17 14 9 7 9 10 12 14 15 16 17 16 16 16 15 15 16 17 18 18 18 20 21 21 21 21 22 22 23 23 24 25 25 26 27 27 26 26 25 25 26 28 28 26 26 26 25 26 29 31 33 34 32 30 30 30 28 26 24 26 25 23 22 22
13 15 17 19 20 22 24 25 25 25 25 25 25 25 24 24 23 22 21 20 19 18 17 14 10 10 10 12 16 16 16 17 16 17 17 16 15 15 15 17 18 18 18 20 20 20 20 21 22 22 23 24 25 25 25 25 26 26 25 23 23 24 27 28 27 28 27 26 27 29 31 34 34 32 31 31 30 29 28 28 29 27 23 24 24
13 15 17 20 20 21 24 25 24 24 23 24 25 25 24 24 24 24 22 21 21 19 18 16 13 11 11 12 15 17 18 18 17 16 16 14 14 15 16 16 17 17 18 20 21 20 19 20 21 21 22 23 25 25 25 24 25 25 24 24 24 25 27 27 28 29 28 28 29 29 31 33 33 32 32 32 32 32 31 30 31 28 24 24 25
14 16 19 22 21 21 23 24 23 23 24 24 25 26 26 26 25 25 25 24 23 21 19 17 15 13 12 12 13 16 17 18 18 17 16 15 14 16 17 17 16 17 18 19 19 19 19 20 21 21 22 23 25 25 25 24 25 25 25 26 27 28 28 29 29 29 29 29 30 30 32 33 34 34 34 34 35 34 32 30 30 27 23 24 25
17 19 21 21 20 21 23 23 24 25 26 27 27 27 27 27 27 27 27 27 26 25 22 20 18 16 14 13 13 15 17 18 18 19 19 18 16 16 18 19 19 20 19 18 18 18 19 20 20 21 22 23 24 25 24 24 25 26 26 28 29 30 30 31 31 30 30 30 31 32 34 34 36 37 35 34 34 32 31 32 30 26 23 25 26
20 21 21 20 21 23 24 24 25 26 27 28 28 28 28 28 28 28 28 28 28 28 27 25 24 23 21 18 16 15 16 18 19 19 20 20 19 18 19 19 20 21 21 19 18 18 20 22 21 21 22 23 23 24 24 24 24 26 27 28 29 30 31 31 31 31 31 32 32 35 36 37 38 38 35 34 33 31 31 33 31 29 28 28 29
23 24 23 23 23 24 25 25 27 27 28 28 28 28 28 28 28 29 28 28 28 29 29 29 28 28 27 25 22 19 18 17 17 19 20 21 21 20 19 19 20 21 21 21 20 19 20 21 21 20 21 22 23 24 24 24 24 25 26 27 28 29 31 30 29 30 31 32 33 35 37 37 37 37 35 35 34 31 31 33 33 31 31 31 31
25 25 25 25 25 25 25 25 26 27 27 28 29 29 29 29 29 29 28 27 27 28 29 29 30 30 30 30 28 26 23 21 18 17 18 19 20 20 19 19 20 21 21 22 21 19 20 21 20 19 19 21 23 24 24 23 23 24 25 27 28 28 28 27 26 28 28 29 32 34 36 36 35 35 36 36 35 34 34 35 33 33 33 32 32
24 25 25 27 27 27 25 25 24 23 23 24 27 30 30 30 30 29 28 27 27 27 28 29 30 31 31 32 32 31 29 25 22 20 19 18 18 19 18 18 19 20 21 22 20 20 20 20 20 19 19 21 23 24 24 24 24 25 25 27 28 28 28 27 27 28 27 28 32 32 32 34 34 34 36 35 33 35 38 35 32 34 34 32 30
24 25 26 28 29 30 29 28 26 24 22 22 25 28 29 30 31 30 29 28 27 27 27 29 29 30 30 31 32 33 32 29 25 21 20 20 19 18 16 16 15 15 17 18 18 20 20 20 20 19 19 21 23 23 24 25 26 26 26 27 27 28 30 29 28 29 28 30 34 31 29 33 35 35 37 35 32 35 38 33 30 34 35 32 32
25 25 26 28 29 29 30 29 29 28 25 23 23 26 27 29 29 29 29 29 29 28 27 28 29 29 29 30 31 33 34 33 29 24 20 20 21 20 16 14 11 8 10 13 14 16 18 19 19 18 18 20 22 24 25 25 25 26 27 27 26 27 29 29 29 31 29 30 34 33 28 31 36 38 39 37 34 36 36 33 33 37 37 35 35
25 24 24 25 26 27 27 27 28 29 28 25 23 23 24 25 26 26 27 28 30 30 28 28 30 29 29 29 31 32 34 34 33 29 22 19 20 20 17 11 7 6 7 9 12 14 16 17 18 18 17 18 19 21 22 23 23 25 26 25 24 25 27 29 30 30 28 28 33 36 32 28 31 35 39 39 37 37 36 34 36 41 40 38 37
23 22 22 21 22 23 23 24 27 31 31 29 25 22 22 25 26 27 27 27 28 29 30 30 31 31 30 30 30 31 32 34 35 34 28 21 18 18 17 12 7 5 5 7 10 12 13 14 16 16 15 16 18 19 21 21 19 20 22 22 23 25 26 28 29 29 28 27 30 35 37 35 33 34 38 39 37 36 37 36 36 40 41 39 38
20 20 22 22 22 23 23 23 26 31 34 33 30 27 27 29 31 31 31 30 28 29 31 33 33 34 33 31 30 30 31 32 33 34 32 26 20 17 15 13 11 11 10 7 5 6 7 9 12 14 15 15 16 17 18 18 14 15 17 18 20 23 23 25 27 27 27 27 26 28 33 35 37 37 36 37 37 38 39 37 36 38 40 38 38
20 20 21 23 24 25 25 25 27 29 33 33 33 32 31 32 33 34 33 32 30 30 32 33 34 35 35 33 31 29 30 31 32 32 32 30 26 20 15 13 13 14 13 11 9 6 2 2 5 9 10 11 12 11 12 11 9 12 15 15 16 19 20 21 21 19 20 21 22 24 26 27 31 34 33 33 36 38 38 35 33 35 37 37 37
18 19 20 21 23 23 24 25 26 28 31 33 34 35 34 34 35 36 36 34 32 30 31 32 32 33 34 34 33 30 29 29 30 31 31 31 30 26 21 17 15 13 11 10 9 8 5 2 1 3 5 7 9 9 7 7 8 9 9 10 13 16 17 18 16 13 13 15 17 21 23 23 25 29 31 32 33 35 38 38 34 32 35 37 38
16 18 19 19 19 21 22 22 23 27 30 32 34 35 35 35 36 37 37 37 35 32 31 31 31 31 31 33 34 33 31 28 27 28 30 31 31 29 26 22 18 13 10 8 8 7 5 3 2 3 5 6 8 9 8 7 6 4 4 7 9 11 13 15 16 13 11 12 14 17 19 20 22 24 26 28 28 29 34 39 37 34 35 36 36
17 17 18 19 20 21 22 23 23 25 29 31 32 34 35 36 37 38 39 40 39 36 33 31 31 31 31 31 32 33 33 31 28 26 26 28 30 30 28 25 21 17 14 13 11 9 6 4 2 3 4 5 9 13 12 8 5 4 4 6 7 8 11 13 14 13 12 12 15 17 18 20 22 22 21 23 25 25 27 31 34 33 32 30 26
17 17 17 19 21 22 24 25 25 25 27 29 31 32 34 36 37 38 40 41 42 41 37 34 33 32 31 31 31 32 33 34 33 30 26 24 25 28 29 27 24 20 17 17 16 13 9 9 6 2 4 7 13 17 17 13 10 9 9 8 8 8 11 13 13 13 13 14 17 19 19 19 20 20 18 18 22 24 24 25 26 25 24 23 22
18 17 17 19 20 21 23 25 26 26 26 28 30 32 34 35 37 37 39 41 43 43 42 38 35 34 32 31 31 31 31 32 34 34 32 28 24 23 24 27 27 24 21 19 17 14 11 10 11 9 10 14 18 19 20 18 16 14 14 13 12 12 14 15 16 16 16 17 19 20 19 18 17 17 15 13 16 20 21 21 23 22 19 19 20
18 17 17 18 19 20 22 24 25 25 25 27 29 31 33 34 35 36 37 39 42 43 43 41 38 36 34 32 30 30 30 31 33 34 34 34 30 24 21 21 23 24 24 21 17 14 12 10 11 13 13 16 20 21 21 21 21 19 18 18 17 17 18 18 18 18 18 18 19 18 17 16 16 16 17 16 16 16 15 15 16 18 16 16 16
19 18 17 17 18 19 21 23 23 23 24 26 28 30 31 32 33 34 34 36 39 42 42 42 40 39 37 35 31 29 29 30 32 33 34 34 34 31 27 24 21 20 21 20 19 17 15 13 13 15 14 15 20 23 22 21 21 22 21 21 20 20 21 21 21 20 20 19 18 17 16 16 16 17 17 16 15 14 13 14 15 17 17 17 17
20 19 17 17 17 18 21 22 21 21 23 25 26 27 29 30 32 33 32 33 37 40 40 40 40 39 39 37 34 31 29 29 30 32 33 32 32 31 31 31 29 26 22 18 15 13 13 12 13 15 15 15 18 23 26 25 24 23 22 21 21 20 21 21 21 21 21 21 21 21 21 21 21 20 19 19 18 17 15 15 16 17 16 15 15
20 19 17 16 16 18 20 20 19 20 22 23 24 25 26 28 29 30 30 31 34 37 37 37 36 36 37 38 37 33 30 29 28 27 28 29 29 29 29 30 30 29 26 21 17 14 14 14 15 16 16 16 17 19 24 26 26 25 24 23 23 22 22 22 22 22 22 23 23 23 24 24 23 22 21 22 23 21 19 18 19 19 17 16 16
18 17 16 16 17 18 18 18 18 19 20 22 24 24 24 25 27 27 27 28 31 32 34 34 34 33 33 35 36 32 28 25 25 24 24 26 27 27 27 26 25 25 25 23 22 22 23 23 23 22 20 19 18 18 18 19 20 20 19 18 18 18 19 20 21 21 21 21 22 22 23 23 23 22 21 21 21 20 17 15 14 13 13 14 16
15 16 15 17 17 17 17 17 16 16 18 21 23 23 21 22 25 26 24 25 27 28 30 32 32 31 31 32 34 32 27 22 21 22 23 25 25 25 24 24 24 24 23 22 23 26 27 27 27 26 23 22 21 19 17 16 16 16 15 14 13 13 13 14 14 14 14 14 15 15 15 16 16 15 14 15 16 15 15 14 13 12 14 16 17
14 14 14 14 15 15 15 16 15 15 17 20 21 21 20 20 24 25 24 24 25 26 29 31 30 29 29 30 31 34 31 24 19 20 22 23 24 24 23 22 22 22 22 23 25 27 27 27 27 26 25 24 22 20 18 17 16 15 14 14 14 14 14 15 15 14 14 14 13 13 12 11 11 12 12 13 14 15 16 16 14 13 15 16 16
11 11 12 12 13 15 15 15 13 13 16 19 20 20 19 19 22 24 23 22 24 26 29 31 29 27 27 27 29 33 34 27 20 17 18 20 22 22 22 23 23 23 23 24 25 25 25 26 26 25 24 23 22 21 20 19 18 17 17 17 17 17 17 17 17 17 17 17 16 16 16 15 14 14 13 13 13 14 14 12 11 13 16 17 16
9 10 11 11 12 15 16 14 11 11 15 17 18 19 18 18 20 24 23 20 22 25 28 30 29 26 24 25 27 31 34 33 26 18 15 16 18 19 20 22 24 25 26 26 25 24 24 24 23 22 22 21 21 20 20 20 19 19 19 19 18 18 18 17 17 17 16 15 14 13 14 14 13 11 11 11 12 13 13 12 12 16 18 18 16
9 9 10 10 10 12 14 14 11 10 14 17 17 17 17 17 19 22 22 19 20 23 26 28 29 26 23 24 27 29 32 35 34 27 20 16 16 17 19 23 25 26 26 25 24 23 23 22 21 20 20 20 20 20 19 19 19 18 18 18 17 17 17 16 17 17 16 15 14 13 13 12 11 10 9 10 11 13 13 14 15 17 18 17 17
10 10 9 9 9 9 11 13 11 10 12 15 16 16 16 16 18 20 21 19 19 21 23 26 28 27 25 24 25 27 30 33 35 34 29 22 18 18 21 24 25 25 24 23 22 22 22 21 21 20 19 18 19 18 17 17 17 18 18 18 17 17 15 15 15 15 16 16 15 13 12 11 10 9 9 10 11 12 12 12 13 13 14 14 15
12 11 9 9 9 9 10 12 9 8 10 13 15 15 15 15 16 18 18 19 19 19 21 23 25 27 26 24 24 25 27 29 32 33 33 30 25 23 23 24 24 23 23 22 20 20 21 21 21 21 21 20 20 18 17 17 18 19 20 20 20 18 17 16 16 16 16 16 14 12 11 10 8 7 7 8 9 10 10 10 10 11 11 11 11
12 10 9 9 9 9 11 11 8 7 8 10 13 15 15 15 15 16 16 17 19 19 19 20 23 25 25 24 24 23 24 26 29 31 33 33 31 26 23 22 23 23 22 21 19 18 18 18 19 20 21 21 21 21 21 20 20 20 20 20 20 19 18 17 17 16 15 14 12 11 11 10 9 7 6 6 6 7 8 7 8 9 10 9 10
10 10 9 10 10 8 9 9 8 6 7 8 11 13 13 12 13 14 14 14 17 18 17 17 19 22 23 23 22 22 22 24 27 29 30 31 32 28 22 20 20 20 20 19 19 18 17 16 16 16 16 17 18 19 19 18 18 18 17 16 16 16 15 14 13 13 13 13 11 10 9 9 9 8 6 6 7 7 8 8 7 8 10 11 11
10 9 8 8 9 8 8 8 8 8 9 10 11 12 12 11 11 12 13 13 15 16 16 16 16 18 20 20 20 20 21 23 24 25 26 28 30 30 24 18 16 16 17 16 16 16 16 14 14 14 15 15 15 15 15 14 14 14 13 12 12 12 11 11 11 11 12 12 12 10 9 8 7 7 7 7 7 7 7 6 6 7 10 11 11
7 7 7 7 7 7 6 7 10 11 11 10 10 11 11 11 10 10 12 14 14 14 14 14 14 15 17 18 18 17 19 21 21 22 24 25 27 29 26 20 15 13 13 13 14 13 13 12 12 13 14 14 13 13 14 14 13 13 12 11 9 8 8 8 9 9 10 10 10 9 9 8 8 8 9 9 9 8 8 7 7 7 8 10 9
6 6 7 6 6 6 7 8 9 10 10 9 9 10 10 10 9 10 12 14 14 13 12 12 12 12 14 16 17 16 17 18 19 20 22 23 25 27 26 23 19 14 11 11 12 13 11 10 9 10 11 12 12 11 12 11 11 11 11 11 10 9 8 8 7 6 7 7 7 7 8 8 7 6 7 7 8 9 8 8 8 7 7 8 7
5 5 5 4 4 7 8 8 8 8 8 8 8 8 9 11 11 10 12 14 13 11 12 13 12 10 10 13 15 15 15 16 16 17 20 21 23 25 25 23 22 19 13 9 9 11 12 11 9 7 8 10 10 9 9 8 7 7 8 8 9 9 9 9 8 7 5 5 5 6 7 7 5 3 4 6 8 8 7 6 5 5 6 7 7
5 4 4 5 5 6 7 7 7 6 8 9 8 7 8 11 11 10 12 14 13 10 11 14 14 11 9 9 11 12 13 13 13 14 17 18 20 23 24 23 21 21 19 14 11 9 10 10 9 6 5 5 5 5 6 7 7 6 6 6 6 6 6 6 7 7 5 3 4 4 4 4 3 1 1 3 5 5 5 4 4 5 6 5 5
4 4 4 5 5 6 6 6 6 6 7 9 9 7 7 9 10 10 12 13 11 8 10 13 15 14 11 9 9 11 11 11 11 12 14 16 18 21 23 22 20 19 20 20 17 11 8 7 7 7 5 4 3 3 4 5 5 6 5 5 5 5 5 3 2 3 3 2 0 1 1 0 1 1 1 2 3 4 5 4 4 4 6 5 5
3 3 3 3 4 5 5 4 5 5 5 6 7 6 7 8 8 8 10 11 9 8 10 13 15 15 12 10 10 11 10 10 11 11 12 14 16 19 21 22 20 18 18 20 21 17 11 8 6 6 5 4 2 3 4 6 6 6 6 5 6 6 5 4 2 2 2 3 3 3 4 5 4 3 3 3 3 3 4 4 4 4 5 6 6
3 1 2 2 2 3 4 5 5 5 5 5 5 6 8 9 8 7 8 9 9 9 10 11 12 13 12 11 10 9 9 10 11 10 11 12 14 16 18 20 20 19 17 17 19 19 17 13 10 7 5 3 3 4 5 6 7 7 6 6 6 5 5 4 2 2 3 5 6 6 7 8 8 7 6 5 5 5 5 5 5 5 5 5 6
3 1 0 1 1 1 3 5 5 4 5 5 5 6 9 10 9 8 7 7 9 9 8 7 9 10 10 9 9 9 8 8 9 9 10 12 13 13 15 18 19 18 17 16 16 17 16 15 15 13 9 7 7 8 7 7 7 8 7 6 6 5 4 4 3 3 4 5 6 8 10 10 10 9 7 6 6 6 5 5 5 5 6 6 5
3 2 2 1 1 1 1 4 4 3 3 4 5 6 8 8 9 10 8 5 6 8 8 7 8 8 7 6 8 8 6 5 6 6 8 10 12 12 14 15 16 16 16 16 17 15 13 14 15 15 12 11 11 11 9 9 9 10 9 8 8 7 7 7 7 7 7 7 7 8 9 9 7 6 5 5 6 7 7 5 4 4 5 7 7
5 3 1 1 1 1 1 2 4 3 3 3 4 6 6 6 8 11 8 3 2 5 8 7 8 8 7 8 9 8 6 5 4 3 4 6 9 11 12 13 14 14 14 15 16 15 13 12 13 14 12 11 11 10 10 10 10 10 10 10 10 10 10 10 10 10 10 9 8 8 8 7 6 5 5 4 4 6 7 6 6 6 5 6 8
6 4 2 2 3 3 4 5 4 4 4 4 4 6 7 6 9 11 9 3 1 4 6 7 7 8 9 10 10 9 7 6 6 5 4 3 4 7 9 10 11 12 12 12 14 15 14 12 12 12 10 9 9 10 11 10 9 9 9 10 10 10 11 11 11 11 10 9 8 8 8 7 5 4 4 4 3 3 3 3 5 8 7 6 6
Wind_Direction
42 33 25 19 21 28 32 29 18 10 6 1 2 6 5 356 339 319 304 299 299 299 306 317 318 314 313 313 312 311 311 312 310 304 302 299 291 280 266 259 261 261 256 252 249 247 244 241 240 238 236 234 234 234 234 233 232 230 227 228 229 219 214 223 225 215 207 209 210 209 211 216 216 213 213 210 205 206 206 205 204 201 200 197 196
49 39 31 26 26 27 27 23 13 8 6 4 5 6 5 4 359 347 333 315 300 296 301 308 313 314 313 310 310 310 308 308 308 306 303 299 297 293 280 268 266 263 259 255 250 247 245 244 243 242 239 238 238 236 234 233 232 232 230 229 230 224 216 218 221 214 206 206 208 209 209 214 217 216 214 210 206 203 202 202 203 204 202 201 202
45 36 31 29 27 25 22 17 10 9 9 8 8 8 8 8 6 1 358 351 333 313 312 317 320 320 317 310 309 310 307 303 304 307 303 297 298 298 285 271 266 262 258 253 249 247 247 248 247 245 242 240 240 238 235 232 232 233 232 232 236 236 225 218 215 211 208 206 203 203 205 209 213 217 215 210 207 206 204 203 202 204 205 206 208
33 29 30 31 28 22 19 16 11 10 13 15 15 15 15 14 11 7 5 2 358 350 331 320 321 324 323 322 323 319 311 304 302 304 304 300 296 290 281 273 267 262 257 249 246 247 247 248 247 245 245 243 240 237 234 232 232 233 233 232 238 243 236 228 222 217 214 210 202 201 205 207 210 214 212 205 207 212 212 206 202 202 205 209 211
36 33 35 36 29 21 18 18 17 16 18 22 24 23 21 19 16 13 11 8 5 1 354 331 319 323 327 331 333 324 312 305 297 290 289 292 292 287 281 274 267 264 258 248 244 246 247 246 244 243 243 241 237 233 231 232 232 233 234 235 237 239 237 236 233 227 222 217 211 207 207 208 209 211 208 203 205 212 214 209 204 202 205 210 212
43 38 37 39 32 24 21 21 23 22 22 25 28 29 28 25 22 19 16 12 8 7 5 353 330 320 322 325 323 318 314 310 299 288 287 285 282 282 282 277 269 263 257 249 243 244 246 245 244 242 239 235 234 233 232 233 234 235 234 234 235 235 235 235 232 226 223 221 216 209 206 207 207 207 207 206 205 207 208 208 207 206 207 211 213
44 39 39 40 35 29 27 27 27 26 25 29 32 33 34 33 29 27 24 19 15 13 12 6 350 330 318 312 309 308 312 313 303 290 290 292 285 277 277 275 267 259 252 246 241 240 241 242 243 243 239 235 234 235 235 234 234 235 234 232 233 233 234 232 226 223 224 220 216 211 206 207 209 209 208 208 208 209 206 204 205 207 210 214 214
36 36 40 40 35 35 35 31 30 29 28 31 35 37 39 38 36 34 33 30 27 22 17 12 3 346 329 314 306 304 306 311 309 297 289 291 291 282 276 270 265 259 250 242 238 237 238 239 241 242 241 240 238 236 237 236 234 233 232 231 232 232 233 230 224 224 226 223 219 214 206 205 210 211 206 201 204 208 210 209 206 205 207 210 208
30 39 44 39 34 40 41 34 31 33 32 34 37 38 40 39 38 37 36 36 36 32 25 19 11 1 347 330 316 309 306 310 315 312 301 291 285 280 277 272 264 258 252 243 240 243 243 241 240 241 241 242 241 238 239 239 236 233 233 233 232 231 232 230 226 225 225 222 218 211 204 203 208 209 204 202 204 206 209 211 207 202 203 202 201
36 46 47 39 36 44 44 35 33 35 33 33 35 36 38 38 36 35 35 36 36 35 32 28 22 17 7 353 338 325 318 316 316 315 311 303 292 281 276 273 266 259 253 244 242 250 253 248 242 241 242 242 242 241 239 237 236 235 236 237 235 233 231 231 229 226 223 221 216 208 204 205 207 209 209 208 208 205 205 206 201 197 200 201 201
45 50 48 43 43 45 42 36 36 36 33 32 31 30 33 34 33 32 33 35 35 34 32 30 27 23 18 12 2 348 337 329 323 317 313 309 303 292 280 273 266 260 254 245 240 246 254 254 248 244 241 239 239 239 237 235 236 238 240 242 239 235 233 234 232 228 224 222 216 211 208 207 206 210 213 211 207 204 203 202 197 196 201 203 203
50 48 47 47 47 45 42 39 37 35 33 31 29 28 29 30 29 28 28 31 33 32 31 30 28 25 21 17 12 6 358 347 335 324 316 312 308 300 288 276 268 264 259 252 243 240 247 254 253 249 243 239 238 240 239 238 240 241 242 243 240 238 238 238 235 232 227 221 215 211 211 211 209 210 212 210 208 204 200 198 196 198 203 205 204
52 46 44 45 46 45 44 42 38 35 34 32 29 29 29 28 25 21 21 23 27 29 29 28 27 26 23 19 15 12 9 4 355 342 329 320 313 306 298 285 274 269 264 256 247 241 245 251 254 253 248 244 243 243 241 238 237 238 239 241 242 242 243 241 238 237 233 222 216 213 212 212 211 209 209 209 210 207 199 195 196 200 204 206 206
54 46 41 41 43 44 45 43 40 36 33 31 31 31 30 28 24 19 17 18 20 23 24 23 23 23 22 20 17 14 12 8 4 359 351 341 330 318 307 294 283 276 271 262 250 241 243 247 250 251 249 248 247 244 240 236 234 235 238 240 241 241 242 239 234 234 232 221 216 216 216 216 213 208 207 210 212 207 199 196 198 202 204 206 208
56 48 44 43 43 43 43 42 39 36 32 33 36 35 30 26 23 20 19 19 19 20 21 20 19 19 19 19 16 15 13 10 6 4 3 359 352 341 326 314 303 291 280 269 252 240 242 248 251 251 249 248 245 241 238 235 234 236 237 238 237 236 237 237 231 230 229 220 214 217 220 218 214 208 206 207 207 203 202 204 206 204 204 205 204
56 52 50 49 46 44 45 42 36 31 30 32 39 41 36 29 23 20 21 22 22 22 23 22 19 18 17 17 16 15 13 11 7 5 6 7 5 0 352 341 334 316 284 268 254 243 243 249 255 256 254 250 243 239 238 237 235 234 234 233 233 232 231 231 228 229 228 220 216 217 213 205 205 206 207 206 206 204 203 206 208 204 203 201 199
58 57 53 51 50 50 48 43 35 31 32 34 36 40 39 33 24 21 23 25 24 23 25 26 24 21 19 18 18 16 13 12 10 8 7 9 10 11 8 0 349 327 293 271 262 252 244 246 253 256 253 247 238 235 239 239 232 228 227 227 229 229 227 225 226 227 227 222 219 219 215 204 200 203 203 204 206 204 198 197 202 203 202 198 195
62 56 48 49 55 54 48 43 39 37 38 40 39 38 39 37 32 30 30 30 28 27 29 32 30 27 24 22 20 18 16 14 12 11 11 9 11 15 16 16 13 356 329 288 269 257 241 240 251 255 250 240 233 234 236 234 227 224 225 226 229 229 226 225 226 226 226 224 219 218 218 214 208 205 202 201 203 204 199 197 199 202 201 198 195
59 50 45 50 56 53 46 43 40 37 38 43 45 44 44 42 40 39 37 35 35 34 34 36 35 33 30 25 22 21 20 18 15 14 14 13 12 13 12 13 18 22 22 7 318 273 239 238 250 251 243 229 221 225 226 223 226 231 228 226 229 230 228 226 226 224 223 222 219 219 220 217 214 214 209 204 205 206 204 202 203 203 202 198 196
56 50 49 52 51 49 47 42 38 36 38 41 43 43 43 43 41 39 38 37 37 37 37 37 37 37 34 30 26 22 22 22 20 17 16 16 16 16 13 11 14 18 21 20 14 10 359 277 260 250 237 213 197 201 212 219 231 236 230 227 230 231 231 232 230 225 222 223 223 226 227 224 223 224 221 217 215 210 206 206 206 206 206 203 198
62 57 54 52 49 50 50 44 39 39 39 38 40 40 40 41 40 39 38 37 36 38 38 37 37 38 38 35 32 27 24 24 23 22 21 21 20 20 21 21 16 13 12 11 13 19 29 43 15 230 213 195 185 189 209 228 230 230 236 238 231 229 233 237 234 225 222 227 229 229 229 227 225 225 225 224 220 214 212 212 208 204 208 209 201
65 61 56 54 51 50 49 45 42 42 39 37 38 39 39 39 38 37 37 37 36 37 37 36 35 36 38 38 37 34 30 26 25 25 27 27 26 24 24 23 20 16 18 20 22 24 26 10 313 238 212 210 202 195 205 222 215 212 247 248 231 226 229 232 233 229 221 222 225 222 217 213 210 211 214 215 212 208 208 209 206 200 201 201 195
64 62 57 53 52 48 46 46 45 44 41 38 37 38 38 37 36 35 35 35 36 36 36 35 34 33 34 36 38 37 36 33 30 28 28 30 31 31 29 26 24 24 30 37 42 47 54 51 4 282 247 228 204 190 189 195 189 182 221 241 237 226 220 222 228 230 220 211 209 205 197 193 190 186 186 189 191 190 191 193 195 194 190 186 184
64 63 58 52 50 47 44 43 43 43 41 38 37 38 38 37 35 34 33 33 34 35 35 34 33 31 31 32 34 36 37 36 35 34 31 31 33 34 34 32 29 28 33 37 39 43 60 77 85 135 193 179 175 174 170 171 179 179 186 211 234 232 222 218 216 215 208 197 195 192 184 180 177 167 155 153 157 159 160 162 165 166 165 162 163
67 62 55 48 45 44 42 40 39 40 39 37 38 39 37 36 34 32 32 32 32 33 33 33 32 31 30 30 31 32 34 36 37 37 36 35 34 36 39 41 39 37 37 37 36 36 47 74 98 122 140 142 146 152 154 159 172 176 174 188 209 216 213 209 205 203 198 191 188 185 179 176 174 168 161 155 153 151 149 148 147 146 150 154 151
66 63 57 48 43 43 41 38 37 40 39 37 38 39 37 36 34 32 32 32 31 31 31 32 32 31 30 30 29 28 30 33 35 36 37 36 36 37 41 46 49 49 47 45 43 41 44 59 85 103 118 123 123 129 139 149 159 166 168 173 182 189 192 194 195 193 188 182 180 176 168 163 162 161 164 167 169 170 174 175 165 157 161 171 172
63 62 57 50 45 43 40 37 39 43 41 38 38 39 38 36 34 32 32 32 31 30 29 30 30 30 28 28 28 28 28 30 32 33 34 35 37 39 42 44 47 51 52 48 46 49 51 56 68 81 94 103 104 108 118 131 143 150 153 154 157 162 166 170 172 171 167 163 161 158 150 144 142 143 148 152 148 148 163 179 176 166 168 181 187
61 61 58 55 50 44 40 38 40 44 42 38 38 38 37 35 34 33 33 33 32 30 29 29 29 28 26 26 26 27 27 28 29 30 31 33 35 39 43 43 41 42 42 37 34 43 54 62 69 75 81 87 90 92 96 104 115 124 128 130 132 134 139 144 145 143 140 138 138 136 132 131 130 131 134 134 127 119 123 134 136 135 143 156 161
63 64 64 64 58 47 41 39 41 44 41 36 36 38 37 36 35 34 34 34 33 31 28 28 28 27 26 25 25 25 26 28 31 29 29 31 34 36 40 42 41 41 42 40 39 44 51 56 60 61 65 70 75 78 81 88 98 108 114 116 118 121 125 128 126 124 124 126 127 127 129 130 129 128 127 125 122 121 121 122 123 125 128 133 134
71 66 61 57 55 53 49 46 45 44 39 35 35 37 38 37 35 35 35 34 33 31 28 26 26 26 26 25 26 26 26 27 31 32 30 31 34 35 37 39 39 41 42 42 45 48 48 48 48 48 50 55 60 63 65 71 79 89 98 104 106 109 114 120 122 124 128 130 129 129 131 131 129 129 128 126 127 130 132 132 134 135 135 134 131
76 67 59 53 54 57 55 50 49 46 40 38 38 38 39 38 35 35 35 32 31 30 27 25 25 26 26 24 25 27 26 23 26 32 33 31 31 33 33 35 38 39 37 37 42 47 47 47 46 46 46 47 50 52 53 55 61 67 75 84 87 90 97 105 114 123 130 135 137 139 143 146 145 143 140 136 137 139 137 133 129 126 130 132 127
78 68 68 62 54 53 52 50 51 51 44 41 41 41 40 36 32 32 33 31 30 30 28 26 25 26 25 23 22 24 26 22 20 28 34 33 31 31 32 33 37 38 37 39 44 45 46 47 48 47 48 48 49 50 52 54 57 59 63 69 73 78 84 89 94 99 103 102 104 108 116 126 136 139 133 126 126 131 134 135 132 130 136 136 127
81 72 77 72 54 49 55 58 58 53 43 40 43 44 41 36 32 33 34 33 31 31 30 29 28 28 26 22 21 23 25 23 20 24 33 36 33 30 31 34 37 39 39 41 45 47 46 47 48 48 49 50 51 53 55 58 61 63 66 68 70 73 77 82 86 88 88 87 87 90 93 96 102 108 109 109 113 122 129 134 135 136 139 139 133
93 81 78 78 61 53 56 59 56 46 39 40 43 43 41 38 34 33 34 34 30 29 30 31 31 31 27 23 22 23 24 25 25 22 28 38 38 33 33 36 38 39 40 42 47 49 48 48 49 49 50 51 52 53 55 57 58 60 63 64 66 68 71 77 84 87 88 90 92 96 100 102 103 102 103 108 116 121 120 121 129 138 142 142 141
102 103 83 78 77 70 61 55 49 43 39 40 42 43 43 39 33 31 33 32 29 28 30 31 32 33 31 25 24 25 24 25 27 26 27 35 40 37 37 39 38 37 39 42 47 51 50 48 48 48 49 49 49 50 55 57 58 60 62 63 65 69 76 84 90 91 91 92 95 98 103 108 112 115 116 115 117 121 121 120 125 132 138 140 140
89 107 90 76 84 81 59 46 44 45 40 36 37 41 43 38 31 29 32 33 30 27 29 30 30 33 35 30 26 26 25 24 26 28 28 32 39 43 43 42 41 39 39 41 47 52 53 52 50 47 45 45 44 46 51 58 62 64 67 69 70 75 83 90 92 91 90 88 88 89 92 95 102 110 116 114 110 113 120 126 130 131 135 139 140
76 95 91 76 73 60 41 39 44 41 34 33 36 39 40 34 28 28 32 36 32 27 26 27 26 28 33 33 28 26 25 24 24 26 27 29 36 45 49 47 44 43 41 41 44 49 54 57 57 54 52 51 51 53 59 67 74 77 78 77 77 80 85 89 87 85 86 84 82 83 85 90 96 103 111 119 118 116 117 124 132 132 134 139 139
72 84 83 70 60 41 31 39 51 43 33 34 36 37 35 30 24 26 32 36 33 27 24 24 24 25 29 30 28 26 24 22 21 22 25 26 30 37 47 50 47 45 44 43 45 49 53 56 58 58 58 59 60 62 66 71 76 77 76 76 77 80 86 89 86 80 78 77 77 76 76 79 84 90 99 113 125 129 132 135 135 133 135 141 139
67 76 79 67 54 44 42 51 58 47 30 26 27 31 32 27 22 25 31 34 32 28 24 21 23 25 25 25 25 24 21 19 18 18 20 23 25 29 39 49 51 49 46 44 45 47 49 51 53 54 56 58 60 62 65 69 71 70 69 70 74 77 80 82 80 80 81 81 79 78 79 82 85 89 97 104 111 121 131 138 139 136 135 135 132
67 72 83 73 54 51 60 61 49 37 34 33 32 34 35 29 22 25 30 31 31 29 24 20 21 22 21 22 24 22 18 17 17 15 16 19 21 23 30 41 48 50 49 45 41 40 39 41 47 50 48 47 51 56 61 64 65 63 60 63 72 78 79 77 78 81 85 83 79 77 79 80 83 88 94 99 105 112 117 121 129 138 142 140 136
74 63 67 65 49 38 40 41 34 35 43 46 39 35 36 35 35 36 31 25 22 21 20 21 21 18 17 19 22 19 16 16 15 14 15 16 17 20 25 31 36 40 45 42 35 30 28 29 35 44 45 42 42 49 55 57 57 55 54 59 70 78 79 80 85 88 88 86 83 81 77 74 78 89 93 95 101 109 110 108 108 122 141 150 151
79 64 53 51 40 16 14 34 44 43 44 43 37 37 41 37 31 30 24 17 14 14 16 20 21 18 16 17 17 15 15 15 14 14 15 16 15 17 21 28 32 33 35 33 27 25 29 32 34 42 49 49 47 49 54 57 57 54 54 61 70 74 71 70 79 92 96 92 87 87 90 92 91 86 82 87 98 105 107 105 98 100 123 142 149
80 77 49 36 35 19 22 51 68 52 34 30 32 40 44 32 20 19 22 21 22 23 22 19 16 15 18 18 15 13 15 15 13 13 14 13 13 14 17 24 29 30 29 29 24 24 32 38 38 40 48 52 51 49 49 49 46 40 39 45 54 58 60 64 71 80 95 109 108 100 101 106 103 80 77 102 116 119 116 109 99 104 128 141 139
86 89 54 34 33 29 37 65 75 45 21 25 35 50 50 35 26 25 23 18 18 27 31 26 19 17 20 20 14 13 15 13 9 9 11 9 9 12 15 19 25 27 28 27 21 13 17 28 38 49 54 50 42 35 36 40 38 32 30 31 31 34 44 61 71 70 70 96 128 125 113 109 105 89 109 142 151 154 151 146 134 133 143 153 143
102 104 77 39 27 32 47 64 58 34 21 29 40 57 60 40 28 25 20 14 14 25 31 26 22 22 26 25 15 12 15 13 6 6 10 8 7 10 13 15 20 24 25 25 24 18 5 13 38 59 66 51 20 1 11 21 18 13 12 7 360 5 11 17 47 63 46 22 39 208 222 146 97 104 174 177 171 166 165 171 178 174 176 184 180
107 95 93 73 41 35 34 22 12 14 23 29 30 37 43 36 24 14 17 26 37 43 36 29 28 29 31 30 22 18 19 14 6 5 8 8 6 7 9 11 15 20 21 23 26 29 26 21 32 53 65 62 27 347 354 359 354 353 354 345 334 339 346 340 308 248 257 275 272 272 287 299 304 292 261 234 215 194 186 191 199 204 206 204 198
122 53 54 75 55 34 17 1 356 6 21 26 20 12 14 16 9 359 12 35 48 41 32 32 34 34 34 31 23 18 17 13 9 6 6 5 4 5 5 6 10 17 23 23 25 28 31 31 29 32 43 47 9 349 358 2 357 353 353 350 345 346 353 354 339 274 264 264 261 269 286 300 304 300 282 255 237 234 237 234 227 223 222 223 225
170 206 286 72 84 68 14 1 8 24 26 20 12 355 351 353 352 352 10 42 52 40 27 22 23 27 31 30 22 18 18 19 15 8 3 2 4 5 3 1 3 13 25 29 24 21 26 31 32 32 33 26 14 10 14 17 14 13 13 14 15 13 8 3 357 338 311 290 279 279 286 295 300 298 285 257 231 225 233 238 236 230 217 208 214
197 208 222 241 183 135 7 343 355 25 34 19 5 346 337 339 346 353 5 43 60 42 27 12 3 6 9 4 1 3 9 15 15 11 6 2 359 357 358 359 360 6 18 26 22 16 17 24 27 27 28 26 24 25 27 25 20 18 15 12 9 3 354 345 339 330 321 312 304 297 295 299 301 291 272 247 224 218 218 217 221 224 205 190 190
218 229 269 290 244 159 187 297 318 335 342 347 346 337 327 328 342 350 358 37 66 13 3 354 347 347 342 334 337 345 345 337 334 341 358 1 355 350 351 354 354 356 6 16 15 12 17 24 20 14 18 28 31 28 26 24 19 14 11 7 3 359 355 350 346 342 337 330 324 316 307 307 306 289 268 249 222 218 225 225 222 223 217 199 193
216 234 274 282 273 277 268 259 269 299 304 300 317 331 330 328 331 337 345 358 333 332 340 338 333 335 337 336 342 357 2 341 316 300 290 305 332 345 352 353 349 348 357 6 3 360 7 19 17 8 12 30 34 23 17 17 15 12 15 15 11 8 6 2 359 358 356 351 347 341 329 321 321 310 279 255 237 229 227 216 213 217 221 217 204
Height
1530 1530 1528 1527 1526 1525 1524 1523 1522 1521 1520 1519 1519 1518 1517 1517 1516 1515 1514 1513 1512 1511 1510 1509 1508 1507 1507 1506 1505 1504 1503 1502 1501 1499 1498 1497 1496 1496 1497 1497 1497 1497 1497 1498 1499 1499 1501 1502 1502 1503 1504 1505 1506 1508 1510 1512 1513 1515 1516 1517 1519 1520 1520 1521 1521 1522 1524 1526 1527 1528 1529 1530 1533 1535 1537 1538 1539 1540 1541 1543 1545 1546 1548 1549 1551
1530 1529 1528 1527 1526 1525 1524 1523 1521 1521 1519 1518 1517 1517 1516 1515 1514 1513 1512 1511 1510 1509 1508 1507 1506 1505 1504 1503 1502 1501 1501 1500 1499 1497 1496 1495 1495 1495 1495 1496 1496 1496 1496 1496 1496 1497 1498 1499 1499 1500 1501 1502 1504 1506 1508 1509 1511 1513 1514 1516 1517 1518 1518 1518 1518 1519 1521 1523 1525 1526 1527 1528 1530 1532 1534 1536 1537 1538 1539 1541 1543 1545 1547 1548 1549
1530 1529 1529 1528 1526 1525 1523 1522 1521 1520 1518 1517 1516 1515 1514 1513 1513 1512 1511 1510 1509 1508 1507 1506 1505 1504 1502 1501 1500 1499 1499 1498 1497 1496 1494 1494 1493 1493 1493 1493 1493 1494 1494 1494 1494 1495 1495 1496 1497 1498 1499 1499 1501 1503 1505 1507 1509 1510 1512 1513 1516 1517 1516 1515 1515 1517 1518 1519 1522 1523 1524 1525 1527 1529 1532 1534 1535 1536 1537 1539 1541 1543 1545 1547 1548
1530 1529 1529 1528 1526 1524 1523 1521 1520 1519 1518 1517 1516 1515 1514 1513 1512 1511 1509 1508 1507 1506 1506 1505 1504 1503 1501 1500 1499 1497 1496 1495 1494 1494 1493 1492 1492 1491 1491 1491 1491 1491 1491 1492 1492 1493 1493 1493 1494 1495 1496 1497 1499 1501 1502 1504 1506 1507 1509 1510 1513 1515 1515 1515 1516 1517 1518 1518 1520 1521 1522 1523 1524 1527 1530 1532 1533 1534 1536 1538 1540 1542 1544 1545 1547
1529 1529 1529 1528 1526 1524 1522 1521 1520 1518 1518 1517 1516 1515 1514 1513 1511 1510 1509 1507 1506 1505 1504 1504 1503 1502 1501 1499 1498 1496 1494 1492 1491 1491 1491 1490 1490 1489 1489 1488 1489 1489 1488 1488 1490 1491 1491 1491 1492 1493 1494 1495 1497 1498 1499 1501 1502 1504 1505 1506 1509 1511 1513 1515 1515 1516 1516 1517 1518 1521 1522 1522 1522 1524 1527 1529 1530 1532 1534 1536 1538 1540 1542 1544 1546
1529 1529 1528 1527 1525 1524 1522 1521 1520 1519 1519 1518 1517 1516 1515 1513 1511 1510 1508 1507 1505 1504 1503 1502 1502 1501 1500 1499 1497 1494 1493 1491 1490 1489 1489 1488 1488 1487 1487 1486 1486 1487 1486 1486 1487 1489 1489 1489 1490 1491 1492 1493 1494 1496 1497 1498 1500 1501 1502 1503 1505 1508 1510 1511 1512 1513 1513 1514 1515 1517 1520 1520 1520 1522 1524 1526 1527 1529 1531 1534 1536 1538 1540 1542 1544
1529 1529 1528 1526 1525 1524 1523 1522 1522 1521 1520 1519 1518 1517 1515 1514 1512 1510 1509 1507 1505 1504 1502 1502 1501 1499 1499 1497 1495 1493 1492 1490 1489 1488 1487 1487 1486 1486 1485 1485 1484 1484 1484 1484 1486 1486 1487 1487 1488 1489 1490 1491 1492 1493 1495 1496 1498 1498 1499 1501 1503 1505 1506 1508 1509 1509 1510 1511 1511 1513 1515 1518 1519 1520 1522 1524 1526 1527 1529 1530 1532 1534 1537 1539 1542
1529 1529 1528 1527 1526 1525 1525 1524 1523 1522 1521 1520 1519 1518 1516 1515 1513 1511 1509 1507 1505 1503 1502 1501 1500 1499 1497 1496 1494 1492 1491 1489 1488 1487 1485 1485 1485 1484 1484 1483 1482 1482 1482 1482 1483 1484 1485 1485 1486 1486 1488 1489 1490 1491 1492 1494 1495 1496 1497 1498 1499 1501 1503 1504 1505 1506 1507 1508 1509 1509 1511 1515 1517 1518 1519 1522 1523 1524 1526 1527 1529 1531 1534 1537 1539
1530 1529 1528 1527 1527 1526 1526 1525 1524 1523 1522 1521 1520 1519 1517 1516 1514 1512 1509 1507 1506 1504 1502 1501 1499 1498 1496 1495 1493 1491 1489 1488 1486 1485 1484 1483 1483 1482 1481 1481 1480 1480 1480 1480 1481 1482 1483 1483 1484 1484 1485 1486 1487 1488 1490 1491 1493 1494 1495 1495 1496 1498 1499 1500 1501 1502 1503 1504 1506 1507 1507 1511 1514 1515 1516 1517 1518 1520 1523 1525 1527 1529 1531 1534 1537
1530 1529 1528 1528 1528 1527 1527 1526 1525 1524 1523 1522 1521 1520 1519 1517 1515 1513 1510 1508 1506 1505 1503 1501 1499 1497 1495 1493 1492 1489 1487 1486 1485 1484 1482 1481 1480 1479 1479 1479 1478 1478 1478 1478 1479 1480 1481 1481 1481 1482 1482 1483 1484 1485 1487 1488 1489 1491 1493 1493 1493 1494 1495 1496 1497 1499 1499 1500 1502 1503 1504 1505 1509 1511 1512 1513 1516 1519 1521 1522 1524 1527 1529 1532 1534
1530 1530 1529 1529 1528 1528 1527 1527 1526 1525 1524 1523 1522 1521 1520 1518 1516 1514 1512 1509 1507 1505 1503 1501 1499 1497 1494 1492 1490 1488 1486 1484 1483 1482 1481 1479 1477 1477 1476 1476 1475 1475 1475 1475 1476 1477 1477 1477 1478 1478 1479 1481 1482 1483 1484 1485 1486 1487 1489 1489 1490 1491 1491 1492 1493 1495 1496 1496 1498 1500 1500 1501 1504 1507 1509 1511 1514 1516 1518 1519 1521 1524 1525 1527 1530
1531 1531 1530 1530 1529 1528 1528 1528 1527 1526 1525 1524 1523 1522 1521 1519 1516 1515 1513 1510 1508 1506 1504 1501 1499 1497 1494 1492 1489 1487 1485 1483 1481 1480 1478 1477 1475 1474 1474 1474 1473 1472 1473 1472 1473 1473 1473 1474 1475 1476 1477 1479 1479 1480 1481 1482 1483 1483 1484 1485 1487 1487 1488 1489 1491 1492 1492 1493 1494 1496 1497 1499 1502 1504 1506 1508 1511 1513 1515 1516 1518 1520 1521 1523 1525
1533 1532 1531 1531 1530 1529 1529 1529 1528 1527 1527 1526 1525 1523 1521 1519 1517 1515 1513 1512 1509 1507 1505 1502 1500 1498 1495 1492 1489 1487 1485 1482 1480 1478 1476 1475 1473 1472 1471 1471 1470 1470 1470 1469 1470 1470 1471 1471 1472 1473 1475 1476 1476 1477 1478 1479 1479 1480 1480 1481 1483 1485 1486 1488 1489 1489 1489 1491 1492 1494 1495 1497 1499 1501 1503 1505 1507 1510 1512 1514 1515 1517 1518 1520 1522
1534 1534 1533 1532 1531 1531 1530 1530 1529 1528 1528 1527 1526 1524 1522 1520 1518 1516 1514 1512 1509 1507 1505 1503 1500 1498 1495 1493 1490 1487 1485 1482 1480 1477 1475 1473 1471 1469 1469 1468 1468 1468 1468 1467 1468 1469 1469 1469 1469 1470 1471 1472 1473 1474 1475 1476 1476 1476 1477 1478 1480 1483 1484 1485 1485 1485 1486 1489 1491 1492 1494 1495 1497 1500 1501 1503 1504 1506 1507 1509 1512 1514 1516 1518 1521
1535 1535 1534 1533 1533 1532 1531 1531 1530 1529 1529 1527 1526 1525 1523 1521 1519 1517 1515 1512 1510 1508 1506 1503 1501 1498 1496 1493 1490 1488 1485 1482 1480 1477 1474 1472 1469 1467 1466 1466 1466 1466 1465 1465 1466 1466 1467 1467 1467 1468 1469 1469 1470 1471 1471 1472 1473 1474 1475 1476 1478 1480 1481 1481 1481 1481 1483 1486 1488 1490 1492 1494 1496 1498 1499 1500 1501 1502 1504 1507 1510 1512 1515 1517 1519
1536 1536 1536 1535 1534 1534 1533 1532 1531 1530 1529 1528 1526 1525 1524 1522 1520 1518 1516 1514 1511 1509 1507 1504 1501 1499 1496 1493 1491 1488 1485 1483 1480 1477 1474 1471 1469 1466 1465 1464 1464 1463 1462 1462 1463 1464 1465 1465 1466 1466 1467 1466 1467 1468 1468 1468 1470 1471 1472 1473 1475 1477 1478 1478 1478 1478 1481 1484 1486 1487 1490 1491 1493 1495 1497 1497 1498 1500 1502 1506 1508 1510 1512 1514 1516
1538 1537 1537 1537 1536 1535 1534 1533 1532 1531 1529 1528 1527 1525 1524 1523 1521 1519 1517 1514 1512 1510 1508 1505 1502 1499 1496 1493 1491 1488 1486 1483 1480 1477 1474 1471 1469 1466 1465 1463 1462 1461 1460 1460 1460 1461 1462 1463 1463 1464 1465 1464 1465 1466 1466 1466 1467 1469 1470 1471 1473 1474 1475 1476 1475 1475 1478 1481 1482 1484 1487 1489 1491 1492 1493 1494 1495 1496 1498 1501 1503 1505 1507 1510 1512
1539 1539 1538 1538 1537 1536 1535 1534 1534 1532 1530 1529 1528 1527 1525 1524 1522 1520 1518 1516 1514 1511 1509 1507 1504 1501 1497 1494 1492 1489 1487 1485 1482 1479 1475 1472 1469 1467 1466 1464 1463 1461 1460 1459 1459 1459 1459 1460 1460 1461 1462 1463 1463 1464 1464 1465 1466 1467 1468 1469 1470 1471 1473 1474 1473 1472 1474 1476 1479 1481 1483 1485 1486 1487 1489 1491 1493 1494 1496 1497 1499 1501 1503 1506 1508
1541 1540 1540 1539 1539 1538 1537 1536 1535 1534 1532 1531 1529 1528 1527 1525 1524 1522 1519 1517 1515 1513 1511 1508 1505 1502 1499 1497 1494 1491 1488 1486 1483 1480 1477 1474 1471 1469 1467 1466 1464 1462 1461 1460 1458 1457 1457 1458 1458 1459 1459 1460 1461 1462 1463 1464 1465 1466 1466 1467 1468 1469 1471 1471 1469 1469 1471 1473 1476 1478 1477 1479 1482 1483 1485 1488 1489 1490 1492 1494 1496 1498 1500 1502 1504
1542 1542 1542 1541 1540 1539 1538 1538 1537 1535 1534 1533 1531 1530 1528 1527 1525 1523 1521 1519 1517 1514 1512 1510 1507 1505 1502 1499 1496 1493 1490 1488 1485 1482 1479 1476 1473 1470 1468 1466 1464 1463 1462 1460 1459 1458 1457 1457 1457 1457 1457 1458 1459 1461 1463 1464 1465 1466 1465 1466 1467 1468 1469 1468 1467 1468 1470 1472 1475 1476 1476 1477 1480 1481 1483 1485 1486 1487 1490 1492 1494 1496 1497 1499 1500
1544 1544 1543 1543 1542 1541 1540 1539 1538 1537 1536 1535 1533 1532 1530 1528 1526 1524 1522 1520 1518 1515 1513 1511 1509 1507 1504 1501 1498 1496 1493 1490 1487 1485 1481 1478 1475 1472 1469 1467 1466 1464 1463 1461 1460 1459 1458 1457 1458 1458 1458 1458 1459 1461 1462 1464 1465 1465 1465 1466 1467 1467 1467 1467 1467 1468 1470 1471 1473 1475 1475 1477 1478 1479 1480 1482 1482 1485 1487 1489 1492 1494 1495 1496 1496
1546 1545 1545 1544 1544 1543 1542 1541 1540 1539 1538 1536 1535 1533 1531 1530 1528 1526 1524 1521 1519 1516 1514 1512 1511 1509 1506 1504 1501 1499 1496 1493 1490 1487 1484 1481 1478 1475 1472 1470 1468 1466 1464 1462 1461 1460 1459 1459 1458 1458 1458 1458 1459 1460 1462 1464 1465 1465 1466 1467 1467 1468 1468 1468 1468 1468 1470 1471 1473 1474 1475 1476 1477 1478 1479 1479 1480 1481 1483 1486 1489 1491 1492 1492 1492
1547 1546 1546 1546 1545 1544 1544 1542 1541 1540 1539 1538 1536 1534 1533 1531 1529 1527 1525 1522 1520 1517 1515 1514 1512 1510 1508 1506 1504 1501 1499 1496 1493 1490 1487 1484 1482 1479 1476 1474 1471 1469 1467 1465 1463 1462 1461 1460 1459 1459 1458 1458 1459 1459 1459 1462 1464 1465 1466 1468 1468 1468 1469 1469 1469 1469 1470 1471 1473 1474 1476 1477 1478 1478 1479 1479 1478 1479 1482 1484 1486 1487 1488 1489 1491
1548 1547 1547 1547 1546 1546 1545 1544 1543 1542 1540 1539 1537 1536 1534 1532 1530 1528 1526 1523 1521 1519 1517 1515 1513 1511 1510 1508 1506 1504 1501 1499 1496 1493 1490 1488 1485 1482 1480 1477 1475 1472 1470 1468 1467 1465 1463 1462 1461 1460 1458 1458 1458 1458 1458 1460 1463 1464 1466 1467 1468 1468 1469 1469 1469 1470 1470 1472 1474 1475 1476 1477 1478 1479 1480 1481 1479 1479 1481 1483 1484 1486 1487 1489 1491
1549 1548 1548 1547 1547 1547 1546 1545 1544 1543 1541 1540 1538 1536 1535 1533 1531 1529 1527 1525 1523 1521 1519 1517 1515 1514 1512 1510 1508 1506 1504 1502 1499 1496 1494 1491 1488 1486 1483 1481 1479 1476 1474 1472 1471 1469 1468 1465 1463 1461 1460 1459 1458 1458 1459 1460 1462 1464 1465 1466 1467 1468 1469 1470 1470 1470 1471 1473 1474 1475 1476 1477 1478 1479 1481 1483 1482 1481 1482 1483 1483 1486 1488 1489 1491
1549 1549 1549 1548 1548 1548 1547 1546 1545 1544 1543 1541 1540 1538 1537 1535 1533 1531 1529 1527 1525 1523 1521 1520 1518 1516 1514 1512 1510 1509 1506 1504 1501 1499 1496 1494 1491 1489 1487 1485 1483 1481 1479 1477 1475 1473 1471 1469 1466 1464 1463 1461 1459 1459 1460 1461 1462 1463 1465 1466 1466 1468 1469 1470 1471 1472 1472 1473 1474 1476 1477 1477 1478 1479 1480 1482 1482 1482 1483 1484 1485 1487 1489 1490 1492
1550 1550 1549 1549 1549 1548 1548 1547 1547 1545 1544 1543 1541 1540 1538 1536 1535 1533 1531 1529 1527 1525 1524 1522 1520 1518 1516 1514 1513 1511 1508 1506 1504 1501 1499 1496 1494 1492 1490 1488 1486 1484 1482 1480 1479 1476 1474 1473 1470 1468 1466 1465 1463 1461 1462 1463 1462 1463 1465 1466 1467 1468 1469 1470 1471 1472 1473 1474 1475 1476 1477 1478 1480 1480 1481 1481 1482 1482 1483 1485 1486 1488 1489 1491 1494
1551 1551 1551 1550 1550 1549 1549 1548 1548 1547 1545 1544 1543 1541 1539 1538 1536 1534 1533 1531 1530 1528 1526 1524 1522 1520 1519 1517 1515 1512 1510 1508 1506 1503 1502 1500 1498 1496 1493 1491 1489 1487 1485 1483 1482 1480 1478 1476 1474 1472 1471 1470 1469 1466 1466 1465 1464 1465 1467 1468 1469 1471 1471 1472 1472 1473 1474 1475 1476 1478 1479 1480 1481 1482 1483 1482 1483 1484 1486 1487 1488 1489 1491 1492 1494
1552 1552 1552 1552 1552 1551 1550 1549 1548 1548 1547 1545 1544 1543 1541 1540 1538 1537 1535 1534 1532 1531 1529 1527 1525 1524 1522 1519 1517 1514 1512 1510 1508 1507 1506 1504 1502 1499 1497 1495 1493 1491 1489 1487 1485 1483 1481 1479 1477 1476 1475 1474 1474 1473 1472 1470 1469 1468 1470 1471 1472 1473 1474 1474 1475 1476 1477 1477 1478 1479 1481 1482 1483 1484 1484 1484 1484 1485 1487 1488 1489 1490 1492 1493 1495
1554 1554 1553 1553 1553 1552 1551 1551 1550 1549 1548 1547 1546 1544 1543 1542 1541 1539 1538 1536 1535 1533 1532 1530 1528 1526 1525 1523 1520 1518 1516 1514 1512 1511 1509 1507 1505 1503 1501 1499 1497 1495 1494 1491 1488 1485 1484 1482 1481 1480 1480 1479 1478 1478 1478 1477 1475 1474 1474 1476 1477 1477 1477 1477 1477 1479 1480 1480 1481 1481 1482 1482 1483 1484 1484 1484 1484 1485 1487 1489 1490 1491 1493 1494 1496
1555 1555 1554 1554 1554 1554 1553 1552 1551 1550 1549 1548 1547 1546 1545 1544 1543 1541 1540 1539 1537 1536 1534 1532 1530 1529 1527 1525 1524 1522 1519 1517 1515 1513 1511 1509 1507 1506 1504 1502 1500 1498 1497 1494 1491 1488 1487 1486 1485 1485 1484 1483 1483 1482 1482 1482 1481 1480 1480 1480 1481 1481 1481 1481 1481 1482 1483 1483 1484 1484 1485 1485 1485 1485 1485 1486 1486 1488 1489 1491 1492 1494 1495 1497 1499
1556 1556 1556 1555 1555 1554 1554 1553 1552 1551 1550 1549 1549 1548 1547 1545 1544 1543 1542 1540 1539 1538 1536 1534 1532 1531 1529 1527 1526 1524 1522 1519 1517 1515 1513 1511 1510 1508 1506 1504 1503 1501 1499 1497 1494 1492 1491 1490 1489 1489 1488 1487 1487 1486 1486 1485 1485 1485 1484 1484 1484 1484 1484 1484 1484 1485 1485 1486 1486 1487 1487 1487 1487 1487 1488 1489 1489 1490 1491 1493 1494 1496 1497 1499 1501
1557 1557 1556 1556 1556 1555 1555 1554 1553 1552 1552 1551 1550 1549 1548 1547 1546 1544 1543 1542 1541 1539 1538 1536 1534 1532 1531 1529 1528 1526 1524 1521 1519 1517 1515 1514 1512 1510 1509 1507 1505 1503 1501 1499 1497 1496 1495 1494 1493 1493 1492 1491 1490 1490 1489 1488 1488 1488 1488 1487 1487 1487 1487 1487 1487 1487 1487 1488 1488 1489 1489 1490 1490 1490 1491 1492 1492 1493 1494 1495 1496 1497 1499 1501 1502
1557 1557 1557 1557 1556 1556 1555 1555 1554 1553 1553 1552 1551 1550 1549 1548 1547 1546 1544 1543 1542 1541 1539 1538 1536 1534 1533 1531 1530 1528 1526 1523 1521 1519 1517 1515 1514 1513 1511 1509 1507 1505 1503 1501 1500 1499 1498 1497 1497 1496 1495 1494 1494 1493 1492 1492 1491 1491 1491 1490 1490 1490 1490 1490 1490 1490 1490 1490 1491 1492 1492 1493 1493 1493 1494 1494 1495 1496 1496 1497 1498 1499 1500 1502 1503
1557 1557 1558 1557 1557 1556 1556 1556 1555 1554 1553 1552 1552 1551 1550 1549 1548 1547 1546 1544 1543 1542 1541 1540 1538 1537 1535 1533 1531 1530 1528 1525 1523 1521 1519 1517 1516 1514 1512 1510 1508 1507 1506 1505 1504 1503 1502 1501 1500 1499 1499 1498 1497 1496 1495 1495 1494 1494 1493 1493 1493 1493 1493 1493 1493 1493 1493 1493 1494 1494 1495 1495 1495 1496 1496 1497 1497 1498 1499 1499 1500 1501 1502 1504 1505
1557 1558 1558 1558 1557 1557 1557 1556 1556 1555 1554 1553 1553 1552 1551 1550 1549 1548 1547 1545 1544 1544 1543 1541 1540 1539 1537 1535 1533 1532 1530 1528 1525 1523 1521 1519 1517 1515 1513 1511 1511 1510 1509 1508 1507 1506 1505 1504 1503 1503 1502 1501 1500 1499 1498 1498 1497 1497 1496 1496 1496 1496 1496 1496 1496 1496 1496 1496 1497 1497 1497 1498 1498 1498 1499 1499 1500 1500 1501 1502 1503 1504 1504 1505 1506
1558 1558 1558 1558 1558 1558 1557 1557 1556 1556 1555 1554 1554 1553 1552 1551 1550 1549 1548 1546 1545 1545 1544 1543 1541 1540 1538 1536 1535 1534 1532 1530 1528 1526 1523 1521 1519 1517 1515 1515 1514 1513 1512 1511 1511 1510 1509 1508 1507 1506 1505 1504 1503 1502 1501 1500 1500 1500 1499 1499 1499 1499 1499 1499 1499 1500 1500 1499 1499 1500 1500 1500 1500 1501 1501 1501 1502 1503 1503 1504 1505 1506 1506 1507 1508
1559 1559 1559 1559 1558 1558 1558 1557 1557 1556 1555 1555 1554 1553 1552 1552 1551 1549 1548 1547 1546 1545 1545 1544 1542 1541 1539 1538 1537 1535 1534 1532 1530 1528 1526 1523 1521 1519 1518 1518 1517 1516 1515 1514 1513 1512 1511 1511 1510 1509 1508 1507 1506 1505 1504 1504 1503 1503 1503 1502 1502 1502 1502 1502 1502 1502 1502 1502 1502 1502 1502 1502 1503 1503 1503 1503 1504 1504 1505 1505 1506 1507 1508 1508 1509
1559 1559 1559 1559 1559 1558 1558 1557 1557 1557 1556 1555 1554 1554 1553 1552 1551 1550 1549 1548 1547 1546 1545 1545 1543 1542 1541 1540 1538 1537 1535 1533 1531 1529 1528 1526 1524 1522 1521 1520 1519 1518 1518 1517 1516 1515 1514 1513 1513 1511 1510 1510 1509 1508 1508 1507 1507 1506 1506 1505 1505 1505 1504 1504 1504 1505 1505 1505 1505 1505 1505 1505 1505 1505 1505 1505 1506 1506 1506 1507 1507 1508 1509 1509 1510
1559 1559 1559 1559 1559 1558 1557 1557 1557 1557 1556 1555 1555 1554 1553 1553 1552 1551 1550 1549 1548 1547 1546 1545 1544 1543 1542 1541 1539 1538 1536 1534 1533 1531 1530 1528 1526 1525 1523 1522 1521 1521 1520 1519 1518 1517 1517 1516 1515 1514 1513 1512 1511 1511 1510 1510 1509 1509 1508 1508 1508 1507 1507 1507 1507 1507 1507 1507 1507 1507 1507 1507 1507 1507 1507 1507 1507 1507 1507 1508 1508 1509 1510 1510 1511
1559 1559 1559 1559 1559 1558 1558 1557 1557 1557 1556 1556 1555 1555 1554 1553 1552 1551 1550 1550 1549 1548 1547 1546 1545 1544 1543 1542 1540 1539 1537 1536 1534 1533 1531 1530 1529 1527 1526 1524 1523 1522 1522 1521 1520 1519 1519 1518 1517 1516 1516 1515 1514 1513 1512 1512 1511 1511 1511 1510 1510 1509 1509 1509 1509 1509 1509 1509 1509 1509 1509 1509 1509 1509 1509 1508 1508 1508 1508 1509 1509 1509 1510 1511 1511
1560 1559 1559 1559 1559 1558 1558 1557 1557 1557 1557 1556 1555 1555 1554 1553 1553 1552 1551 1550 1549 1548 1547 1547 1546 1545 1544 1543 1541 1540 1539 1537 1536 1534 1533 1532 1530 1529 1528 1526 1525 1524 1523 1522 1522 1521 1520 1519 1519 1518 1517 1517 1516 1516 1515 1514 1513 1513 1512 1512 1511 1511 1511 1511 1510 1510 1510 1510 1510 1510 1510 1510 1510 1510 1510 1510 1510 1509 1509 1509 1510 1510 1511 1511 1512
1559 1559 1559 1559 1559 1558 1557 1557 1557 1557 1557 1556 1556 1555 1555 1554 1553 1552 1552 1550 1549 1548 1547 1547 1546 1545 1544 1543 1542 1541 1540 1538 1537 1535 1534 1533 1532 1531 1529 1528 1526 1525 1524 1524 1523 1522 1521 1521 1520 1520 1519 1519 1518 1517 1517 1516 1516 1515 1515 1514 1514 1513 1513 1513 1512 1512 1512 1512 1512 1511 1511 1511 1511 1511 1511 1511 1511 1511 1511 1511 1511 1511 1512 1512 1512
1559 1559 1559 1559 1558 1558 1558 1558 1557 1557 1557 1556 1556 1555 1555 1554 1553 1553 1552 1551 1550 1549 1548 1547 1546 1545 1544 1543 1543 1542 1540 1539 1538 1537 1535 1534 1533 1532 1531 1529 1528 1527 1526 1525 1524 1523 1522 1522 1521 1521 1520 1520 1519 1518 1518 1518 1517 1517 1516 1516 1516 1515 1515 1515 1514 1514 1514 1513 1513 1512 1512 1512 1512 1512 1511 1512 1512 1512 1511 1512 1512 1512 1512 1512 1512
1559 1559 1559 1559 1558 1558 1558 1558 1557 1557 1557 1556 1556 1555 1555 1554 1553 1553 1552 1551 1550 1549 1548 1547 1546 1545 1544 1543 1543 1542 1541 1540 1539 1538 1537 1535 1534 1533 1532 1531 1529 1528 1527 1526 1525 1524 1523 1523 1522 1522 1521 1521 1520 1519 1519 1519 1518 1518 1517 1517 1517 1516 1516 1516 1515 1515 1515 1514 1514 1513 1513 1513 1513 1512 1512 1512 1512 1512 1512 1512 1512 1512 1512 1512 1513
1559 1559 1559 1559 1558 1558 1558 1558 1557 1557 1556 1556 1556 1555 1555 1554 1553 1553 1552 1551 1550 1549 1548 1547 1546 1545 1544 1544 1543 1542 1541 1540 1539 1538 1538 1536 1535 1533 1532 1532 1531 1529 1528 1527 1526 1524 1523 1523 1523 1522 1522 1521 1520 1520 1520 1519 1519 1518 1518 1517 1517 1516 1516 1516 1515 1515 1515 1515 1514 1514 1513 1513 1513 1513 1512 1512 1512 1512 1512 1512 1512 1512 1512 1512 1512
1558 1558 1558 1558 1558 1558 1558 1557 1557 1557 1556 1556 1555 1555 1555 1554 1553 1552 1552 1551 1550 1549 1549 1548 1547 1546 1545 1544 1543 1542 1542 1541 1540 1539 1538 1537 1536 1534 1533 1533 1532 1530 1529 1528 1527 1526 1525 1524 1523 1523 1522 1522 1521 1521 1520 1520 1519 1518 1518 1517 1517 1516 1516 1515 1515 1515 1514 1514 1514 1513 1513 1513 1513 1512 1512 1512 1512 1512 1511 1511 1511 1511 1511 1512 1512
1558 1558 1558 1558 1558 1558 1557 1557 1557 1557 1557 1556 1555 1554 1554 1554 1552 1552 1552 1551 1550 1549 1549 1548 1547 1546 1545 1544 1543 1543 1542 1541 1540 1539 1538 1537 1537 1535 1534 1533 1532 1531 1530 1529 1528 1527 1526 1525 1524 1524 1523 1523 1522 1521 1521 1520 1519 1519 1518 1518 1517 1517 1516 1516 1515 1515 1514 1514 1513 1513 1512 1512 1511 1511 1511 1511 1511 1511 1511 1511 1511 1511 1511 1511 1512
1557 1557 1557 1557 1557 1557 1557 1557 1557 1556 1556 1556 1555 1554 1554 1553 1552 1552 1552 1551 1550 1549 1549 1548 1547 1546 1545 1544 1543 1542 1542 1541 1540 1539 1539 1538 1537 1536 1535 1534 1533 1532 1531 1530 1529 1528 1527 1526 1525 1525 1524 1523 1523 1522 1521 1521 1520 1519 1519 1518 1518 1517 1516 1516 1515 1515 1514 1513 1513 1512 1511 1511 1510 1510 1509 1509 1510 1510 1510 1510 1511 1511 1511 1511 1511
1556 1556 1556 1556 1556 1556 1556 1556 1556 1556 1556 1555 1555 1554 1553 1553 1552 1552 1551 1551 1550 1549 1548 1547 1546 1545 1544 1544 1543 1542 1541 1541 1540 1539 1538 1538 1537 1536 1535 1534 1533 1532 1531 1530 1529 1529 1528 1527 1526 1525 1525 1524 1524 1523 1522 1521 1521 1520 1519 1518 1518 1517 1516 1515 1515 1514 1513 1512 1512 1511 1510 1510 1510 1509 1509 1509 1509 1509 1510 1510 1510 1510 1511 1511 1511
1555 1555 1555 1555 1555 1555 1555 1555 1555 1555 1555 1555 1554 1553 1553 1552 1552 1551 1551 1550 1550 1549 1548 1547 1546 1545 1544 1543 1542 1542 1541 1540 1539 1538 1538 1538 1537 1536 1535 1534 1533 1532 1531 1530 1530 1529 1529 1528 1526 1526 1525 1525 1524 1523 1522 1522 1521 1520 1519 1518 1518 1517 1516 1515 1514 1513 1512 1512 1511 1510 1510 1509 1509 1509 1509 1509 1509 1509 1509 1509 1509 1510 1510 1510 1510